Date,TemperatureHighF,TemperatureAvgF,TemperatureLowF,DewpointHighF,DewpointAvgF,DewpointLowF,HumidityHigh,HumidityAvg,HumidityLow,PressureMaxIn,PressureMinIn,WindSpeedMaxMPH,WindSpeedAvgMPH,GustSpeedMaxMPH,PrecipitationSumIn
2013-1-1,15,9,4,7,4,0,84,78,67,30.27,30.18,5,2,8,0.00
2013-1-2,26,20,11,21,13,4,84,74,52,30.20,30.07,5,1,9,0.00
2013-1-3,27,23,13,22,19,9,89,84,79,30.25,30.07,9,4,13,0.00
2013-1-4,29,20,11,22,16,7,87,81,71,30.21,30.10,11,4,17,0.00
2013-1-5,36,28,15,34,25,13,95,89,76,30.25,29.87,6,1,14,0.09
2013-1-6,35,26,18,33,22,15,91,84,79,30.30,29.87,13,5,17,0.02
2013-1-7,40,28,14,28,22,12,91,77,58,30.29,30.05,13,2,17,0.01
2013-1-8,40,34,24,33,29,23,95,84,71,30.11,29.94,5,1,11,0.05
2013-1-9,40,35,25,33,28,23,91,77,64,30.46,29.92,14,4,21,0.00
2013-1-10,42,31,20,36,28,18,96,87,68,30.49,29.87,6,1,10,0.40
2013-1-11,48,42,37,47,41,36,98,96,92,29.86,29.59,9,1,14,0.10
2013-1-12,52,37,25,47,32,20,93,80,71,29.99,29.60,13,4,23,0.01
2013-1-13,25,12,14,22,-35,-100,92,45,74,30.22,29.91,9,-439,12,0.00
2013-1-14,23,16,9,11,9,5,84,75,60,30.48,30.24,5,2,8,0.00
2013-1-15,29,20,9,17,13,7,92,76,55,30.45,30.11,6,1,12,0.00
2013-1-16,35,27,18,31,20,11,88,78,63,30.11,29.79,13,3,18,0.00
2013-1-17,30,21,13,22,10,5,88,62,52,30.41,30.07,11,3,15,0.00
2013-1-18,43,32,13,34,25,10,89,76,66,30.44,29.82,9,3,21,0.01
2013-1-19,45,38,19,36,29,7,86,73,35,29.94,29.64,23,6,43,0.00
2013-1-20,18,13,9,8,2,0,69,62,53,30.31,29.96,17,6,26,0.00
2013-1-21,12,5,-1,5,-4,-9,84,66,57,30.32,30.15,19,8,22,0.00
2013-1-22,9,2,-5,-2,-6,-11,77,68,58,30.41,30.32,10,4,14,0.00
2013-1-23,19,13,6,15,6,-2,88,73,62,30.44,30.11,19,4,26,0.00
2013-1-24,19,10,1,11,1,-5,75,68,58,30.69,30.39,8,2,12,0.00
2013-1-25,27,21,17,19,14,5,85,73,55,30.37,29.95,10,4,18,0.00
2013-1-26,26,19,10,15,9,5,83,68,50,30.41,30.21,6,2,13,0.00
2013-1-27,35,29,24,34,24,14,96,81,65,30.36,29.86,5,1,12,0.01
2013-1-28,43,38,33,38,35,31,97,91,77,29.93,29.77,8,2,11,0.34
2013-1-29,59,45,36,57,44,35,99,96,93,29.80,29.45,5,2,16,1.64
2013-1-30,36,29,17,36,28,13,97,93,83,29.61,29.27,10,4,16,0.12
2013-1-31,17,10,3,13,-7,-100,88,69,70,30.18,29.61,14,-118,20,0.00
2013-2-1,8,2,-4,5,-6,-100,88,77,70,30.37,30.18,11,-19,13,0.00
2013-2-2,12,9,3,7,4,-1,90,81,68,30.17,30.06,9,1,9,0.00
2013-2-3,20,14,6,14,9,2,90,81,69,30.07,29.97,15,3,17,0.00
2013-2-4,18,15,8,14,10,3,91,82,62,30.03,29.95,8,2,11,0.00
2013-2-5,29,18,5,25,3,-100,93,75,78,30.12,29.81,7,-114,13,0.00
2013-2-6,36,22,3,32,12,-100,91,78,67,30.25,30.07,5,-41,10,0.02
2013-2-7,35,32,22,34,31,21,96,93,86,30.09,29.89,8,1,15,0.07
2013-2-8,24,20,4,21,17,2,95,87,78,30.41,30.05,7,2,12,0.00
2013-2-9,30,25,5,26,22,3,94,89,83,30.42,30.09,6,1,13,0.00
2013-2-10,43,34,20,42,33,19,97,94,82,30.08,29.40,10,2,19,0.86
2013-2-11,40,32,27,35,27,22,87,81,76,29.99,29.42,20,8,30,0.00
2013-2-12,30,25,22,23,20,17,91,81,74,30.09,29.88,13,4,18,0.00
2013-2-13,39,30,18,31,26,16,96,85,73,29.88,29.68,6,1,10,0.00
2013-2-14,37,34,30,34,29,22,92,81,65,29.98,29.57,15,5,23,0.01
2013-2-15,29,22,14,26,12,6,88,67,50,30.21,29.98,12,5,14,0.00
2013-2-16,18,13,6,7,4,1,80,67,51,30.22,30.16,14,3,17,0.00
2013-2-17,28,17,3,19,9,0,91,71,52,30.24,29.96,6,1,9,0.00
2013-2-18,48,36,26,41,30,19,97,80,69,29.95,29.44,10,3,18,0.17
2013-2-19,25,15,10,24,10,2,94,82,69,30.20,29.54,14,9,24,0.00
2013-2-20,22,14,7,13,7,1,85,74,65,30.41,30.20,10,4,17,0.00
2013-2-21,27,20,11,25,16,7,92,85,79,30.45,30.06,11,3,18,0.00
2013-2-22,33,28,25,30,26,24,95,91,83,30.05,29.78,10,2,13,0.00
2013-2-23,29,26,24,25,21,19,89,82,72,29.94,29.85,10,4,13,0.00
2013-2-24,38,26,16,25,20,13,91,78,58,30.15,29.95,5,1,7,0.01
2013-2-25,44,29,14,29,22,12,93,78,55,30.18,30.03,5,0,6,0.07
2013-2-26,34,33,30,31,29,26,96,85,73,30.02,29.61,17,5,19,0.00
2013-2-27,33,31,29,32,30,28,96,95,91,29.77,29.59,11,4,17,0.03
2013-2-28,35,32,26,31,27,19,93,82,74,30.11,29.77,12,4,14,0.06
2013-3-1,26,24,18,21,19,14,86,81,75,30.26,30.11,12,3,17,0.00
2013-3-2,26,18,11,16,12,8,89,77,65,30.26,30.19,9,2,14,0.00
2013-3-3,28,16,5,14,9,2,90,74,50,30.19,30.11,4,1,11,0.00
2013-3-4,35,24,8,25,17,5,87,77,64,30.16,30.04,6,2,13,0.02
2013-3-5,32,29,25,30,26,24,95,89,78,30.08,29.86,9,3,15,0.00
2013-3-6,33,30,26,28,25,23,91,84,79,30.32,30.08,10,3,14,0.00
2013-3-7,38,27,17,24,20,15,89,73,57,30.43,30.31,8,1,8,0.10
2013-3-8,40,27,11,30,22,9,93,81,62,30.48,30.29,5,1,10,0.01
2013-3-9,43,37,28,36,32,25,93,82,68,30.29,29.80,10,1,14,0.17
2013-3-10,42,40,37,41,39,36,97,96,92,29.80,29.60,10,1,10,0.93
2013-3-11,37,34,32,36,33,29,98,96,87,29.75,29.54,9,3,14,0.05
2013-3-12,34,29,26,29,25,21,95,85,67,30.00,29.75,11,5,17,0.00
2013-3-13,33,26,21,22,14,10,88,62,39,30.32,30.01,14,5,20,0.00
2013-3-14,39,28,19,29,21,13,93,76,60,30.32,30.07,4,1,11,0.00
2013-3-15,36,32,28,34,30,27,95,92,83,30.07,29.80,5,1,11,0.13
2013-3-16,32,28,23,28,23,20,93,81,70,30.14,29.79,11,4,14,0.00
2013-3-17,34,27,20,23,18,12,84,69,58,30.26,30.01,6,2,13,0.00
2013-3-18,35,29,20,32,25,13,94,86,73,30.00,29.58,14,3,23,0.05
2013-3-19,30,21,13,16,12,8,82,68,50,30.07,29.73,18,8,25,0.00
2013-3-20,22,16,11,11,6,1,68,63,55,30.10,30.04,14,6,22,0.00
2013-3-21,30,20,12,15,10,5,74,66,52,30.09,30.02,11,4,13,0.00
2013-3-22,35,24,14,19,15,10,86,69,47,30.09,30.04,6,1,11,0.01
2013-3-23,40,30,19,26,21,16,91,70,47,30.16,30.06,5,1,11,0.00
2013-3-24,36,32,30,30,27,23,90,80,72,30.07,29.76,13,5,22,0.00
2013-3-25,36,31,26,28,25,22,84,77,68,30.09,29.80,16,4,21,0.00
2013-3-26,42,36,32,29,26,24,78,70,59,30.25,30.09,9,3,13,0.00
2013-3-27,42,37,30,27,24,22,77,63,47,30.31,30.25,7,2,10,0.00
2013-3-28,46,35,24,26,23,21,89,64,39,30.35,30.29,7,1,11,0.00
2013-3-29,50,39,27,31,25,22,91,61,36,30.32,30.23,5,1,9,0.00
2013-3-30,56,44,32,42,34,24,88,67,52,30.23,29.80,8,2,16,0.00
2013-3-31,51,42,34,42,35,22,93,78,60,29.89,29.69,20,6,26,0.00
2013-4-1,37,32,28,21,16,12,66,54,37,30.20,29.90,15,6,19,0.00
2013-4-2,40,33,26,18,16,10,72,52,32,30.32,30.19,15,5,20,0.00
2013-4-3,46,36,24,24,18,12,75,51,28,30.46,30.28,5,1,9,0.00
2013-4-4,58,44,30,38,28,18,66,54,39,30.28,29.94,11,3,16,0.00
2013-4-5,50,41,31,30,27,22,84,59,38,30.23,30.02,8,2,10,0.00
2013-4-6,66,49,35,51,37,22,89,64,41,30.12,29.53,13,3,19,0.14
2013-4-7,57,46,38,50,37,33,89,72,51,29.93,29.55,10,4,18,0.00
2013-4-8,53,45,38,47,41,33,95,87,79,29.98,29.58,10,3,16,0.78
2013-4-9,44,40,38,42,39,37,97,96,93,30.00,29.85,12,3,15,1.09
2013-4-10,39,37,34,38,36,33,98,96,93,30.05,29.85,10,4,15,1.17
2013-4-11,39,38,37,38,37,35,97,95,93,29.91,29.56,11,4,24,0.35
2013-4-12,43,38,36,39,35,30,97,89,76,29.80,29.52,11,4,17,0.06
2013-4-13,40,37,34,31,29,26,85,73,60,29.98,29.78,12,5,20,0.00
2013-4-14,56,31,32,49,6,-100,93,67,77,30.00,29.57,8,-214,17,0.10
2013-4-15,61,51,42,54,45,39,97,81,48,29.94,29.56,11,3,25,0.73
2013-4-16,54,45,36,39,35,32,93,71,48,30.28,29.95,10,4,13,0.00
2013-4-17,45,42,40,43,38,33,95,85,72,30.30,29.83,11,2,16,0.85
2013-4-18,62,49,40,59,47,35,97,94,80,29.84,29.33,17,3,29,0.96
2013-4-19,40,37,33,34,30,24,85,75,60,29.90,29.36,15,9,30,0.00
2013-4-20,46,36,29,27,20,16,78,56,31,30.40,29.91,13,4,18,0.00
2013-4-21,55,44,32,36,30,25,82,60,38,30.51,30.27,10,2,20,0.00
2013-4-22,68,55,42,44,38,34,73,56,37,30.28,29.98,6,2,15,0.00
2013-4-23,55,45,37,49,40,32,93,82,57,29.98,29.87,11,3,17,0.32
2013-4-24,54,44,35,32,28,22,79,56,31,30.03,29.94,11,4,17,0.00
2013-4-25,53,45,40,37,33,30,84,64,43,30.28,29.97,11,4,19,0.00
2013-4-26,70,55,38,48,39,27,70,55,43,30.28,30.13,9,3,22,0.00
2013-4-27,68,58,46,50,46,44,91,68,46,30.21,29.98,6,1,11,0.00
2013-4-28,72,60,51,52,47,44,85,65,41,29.97,29.76,4,1,6,0.00
2013-4-29,72,62,52,58,54,50,91,75,53,29.84,29.69,8,2,14,0.05
2013-4-30,88,74,61,62,56,49,88,60,27,29.83,29.65,14,3,24,0.00
2013-5-1,86,73,54,59,55,44,84,56,30,30.14,29.84,15,3,18,0.00
2013-5-2,56,48,40,47,42,37,92,78,62,30.23,30.14,19,5,20,0.55
2013-5-3,50,43,38,48,42,36,97,96,91,30.19,29.98,9,3,16,0.48
2013-5-4,73,60,49,53,49,46,93,69,45,30.02,29.95,9,2,12,0.00
2013-5-5,75,61,48,50,46,43,90,61,33,30.03,29.95,7,1,11,0.00
2013-5-6,77,62,47,50,42,31,89,54,21,30.04,29.95,6,1,11,0.00
2013-5-7,81,67,52,54,44,38,83,48,23,30.03,29.93,6,1,9,0.00
2013-5-8,82,67,51,53,47,35,90,53,19,30.00,29.90,5,1,8,0.00
2013-5-9,67,59,47,60,53,46,95,81,55,29.91,29.83,6,1,14,0.91
2013-5-10,50,46,43,46,44,41,97,92,84,29.97,29.82,12,4,16,0.80
2013-5-11,53,48,41,50,38,24,97,71,33,30.02,29.78,18,6,30,0.00
2013-5-12,54,46,39,30,27,24,69,50,31,30.11,30.02,15,5,21,0.00
2013-5-13,64,49,35,39,34,27,93,63,25,30.16,29.92,7,1,10,0.00
2013-5-14,90,71,50,61,51,37,63,51,29,29.91,29.51,7,2,15,0.01
2013-5-15,79,71,59,61,50,41,80,50,28,29.79,29.52,8,3,17,0.00
2013-5-16,85,69,55,55,48,40,90,50,28,29.93,29.79,8,2,10,0.00
2013-5-17,66,59,51,53,47,37,93,67,45,30.05,29.92,10,2,12,0.37
2013-5-18,82,67,54,65,58,47,88,72,52,30.02,29.89,5,1,8,0.00
2013-5-19,88,74,59,67,62,57,93,70,44,29.91,29.61,11,2,16,0.05
2013-5-20,86,76,64,66,61,58,90,63,41,29.69,29.58,13,2,18,0.00
2013-5-21,80,71,63,65,61,57,88,72,48,29.64,29.56,13,2,21,0.02
2013-5-22,73,64,56,66,61,55,97,90,69,29.71,29.57,3,0,8,0.67
2013-5-23,60,53,42,55,46,38,98,81,50,30.29,29.73,11,4,22,0.16
2013-5-24,67,52,38,45,38,35,89,64,37,30.43,30.27,9,1,10,0.00
2013-5-25,62,54,46,43,39,35,74,57,43,30.37,30.27,7,1,9,0.00
2013-5-26,69,55,43,52,44,36,87,68,42,30.29,30.14,8,1,9,0.06
2013-5-27,55,54,52,53,50,44,96,89,69,30.13,29.87,8,2,12,0.09
2013-5-28,72,62,52,68,61,51,98,94,84,29.86,29.66,5,1,8,1.14
2013-5-29,84,74,64,70,66,63,98,79,59,29.87,29.72,7,1,13,0.00
2013-5-30,86,76,64,71,67,62,93,75,56,29.82,29.66,11,2,18,0.31
2013-5-31,78,69,63,68,64,62,95,84,62,29.75,29.63,8,2,15,0.03
2013-6-1,80,72,67,68,64,58,96,78,56,29.64,29.55,9,2,14,0.00
2013-6-2,66,56,49,59,48,43,91,74,57,29.99,29.63,14,3,19,0.00
2013-6-3,74,59,44,52,45,39,96,64,33,30.08,29.98,6,1,11,0.00
2013-6-4,73,63,54,50,46,43,73,57,41,30.13,30.02,7,1,10,0.00
2013-6-5,68,59,53,55,52,46,88,77,61,30.11,29.92,5,1,7,0.09
2013-6-6,60,57,54,55,53,50,93,85,76,29.93,29.87,5,1,7,0.03
2013-6-7,74,62,54,54,49,44,89,66,35,29.96,29.87,9,1,13,0.00
2013-6-8,74,62,50,53,50,48,95,68,41,29.97,29.89,4,1,8,0.00
2013-6-9,82,70,57,64,57,50,86,65,45,29.98,29.75,7,2,13,0.00
2013-6-10,81,72,62,65,63,59,92,74,56,29.80,29.71,7,1,11,0.00
2013-6-11,86,74,62,68,64,60,95,73,51,29.86,29.72,6,1,10,0.00
2013-6-12,81,72,64,70,66,63,96,84,67,29.85,29.57,11,2,19,1.33
2013-6-13,79,69,59,63,59,53,96,72,52,30.02,29.68,8,2,14,0.00
2013-6-14,80,67,55,61,55,49,92,68,48,30.11,29.95,5,1,7,0.00
2013-6-15,82,70,57,71,63,49,96,80,63,30.03,29.77,7,1,11,0.39
2013-6-16,85,76,66,70,61,52,95,65,33,29.85,29.78,9,2,13,0.22
2013-6-17,87,74,61,63,59,56,83,61,37,29.91,29.78,12,2,23,0.00
2013-6-18,73,64,56,58,54,50,85,73,47,30.02,29.91,10,3,14,0.00
2013-6-20,90,82,77,66,54,-100,60,41,37,30.02,0.00,6,-50,8,0.00
2013-6-21,76,70,70,69,60,-100,94,81,76,30.01,29.93,3,-47,6,0.43
2013-6-22,82,73,66,75,69,65,96,88,73,30.09,29.87,10,2,19,0.82
2013-6-23,88,76,65,75,69,64,95,79,64,29.98,29.81,8,1,13,0.00
2013-6-24,83,74,69,72,68,66,94,84,64,29.96,29.80,6,1,11,0.00
2013-6-25,82,73,66,74,70,64,97,90,73,29.89,29.75,5,1,18,1.85
2013-6-26,75,70,67,72,66,-100,97,93,86,29.77,29.68,8,-16,11,2.26
2013-6-27,88,78,70,73,69,63,95,76,52,29.73,29.63,12,3,14,0.00
2013-6-28,78,72,68,66,63,59,90,73,54,29.67,29.56,13,4,21,0.00
2013-6-29,75,68,65,64,62,58,95,83,56,29.77,29.57,10,2,17,0.35
2013-6-30,79,69,61,62,56,51,82,65,44,29.99,29.78,12,3,17,0.00
2013-7-1,80,70,58,56,52,49,76,56,35,30.06,29.99,12,2,17,0.00
2013-7-2,77,67,58,56,52,45,88,61,34,30.07,30.01,11,2,12,0.00
2013-7-3,72,66,60,65,60,50,92,79,68,30.04,29.98,6,1,7,0.00
2013-7-4,85,74,61,66,62,55,95,69,41,30.05,29.95,5,1,8,0.00
2013-7-5,86,76,64,67,64,60,89,67,49,30.02,29.93,6,1,9,0.00
2013-7-6,87,76,64,67,65,62,92,69,47,29.98,29.88,5,1,9,0.00
2013-7-7,90,79,69,73,70,66,94,73,50,29.93,29.85,7,1,9,0.00
2013-7-8,89,79,72,78,73,70,94,81,65,29.92,29.84,7,2,14,0.18
2013-7-9,85,77,71,77,73,69,96,88,71,29.93,29.77,6,1,15,0.42
2013-7-10,79,75,66,75,64,56,94,71,47,29.96,29.78,12,3,16,0.00
2013-7-11,83,71,59,62,59,56,94,68,40,30.07,29.96,4,1,9,0.00
2013-7-12,87,72,58,62,56,43,93,61,25,30.12,30.02,5,1,7,0.00
2013-7-13,86,74,59,64,60,56,91,65,44,30.11,30.03,5,1,8,0.00
2013-7-14,90,78,64,71,67,61,89,71,52,30.16,30.09,6,1,7,0.00
2013-7-15,93,81,69,77,72,67,93,76,52,30.21,30.14,5,0,7,0.00
2013-7-16,93,84,74,77,75,72,94,76,57,30.22,30.15,10,1,10,0.00
2013-7-17,94,84,76,78,75,72,95,76,52,30.23,30.09,5,1,14,0.41
2013-7-18,93,84,74,78,75,74,97,75,54,30.10,29.84,6,2,13,0.00
2013-7-19,91,84,77,76,73,66,82,70,56,29.84,29.66,8,3,17,0.00
2013-7-20,86,76,65,68,64,60,87,68,45,29.91,29.76,6,2,13,0.00
2013-7-21,85,69,62,69,62,58,96,82,57,29.94,29.81,12,2,20,2.56
2013-7-22,87,74,62,72,67,62,97,80,57,29.84,29.61,10,1,13,0.02
2013-7-23,75,70,60,65,59,55,89,71,50,29.95,29.65,10,2,17,0.00
2013-7-24,75,65,55,57,54,51,93,71,46,30.04,29.95,7,1,10,0.00
2013-7-25,81,69,55,65,60,53,94,74,54,30.05,29.90,7,1,14,0.00
2013-7-26,74,69,64,70,64,57,95,84,65,29.92,29.80,6,1,12,0.70
2013-7-27,64,58,53,57,50,47,86,75,60,29.91,29.84,12,4,18,0.00
2013-7-28,68,59,53,55,52,50,92,77,61,29.98,29.82,12,3,15,0.00
2013-7-29,76,64,57,60,56,53,90,76,56,30.13,29.98,4,1,8,0.00
2013-7-30,77,66,56,64,61,55,96,85,60,30.15,30.05,4,0,7,0.43
2013-7-31,78,68,62,69,64,60,97,88,68,30.05,29.90,6,1,16,0.04
2013-8-1,78,69,61,62,59,53,96,73,43,29.95,29.86,8,2,17,0.01
2013-8-2,81,71,62,68,62,57,95,74,49,29.91,29.79,7,2,11,0.33
2013-8-3,78,69,56,58,55,53,92,63,44,30.08,29.91,9,1,14,0.00
2013-8-4,76,66,56,62,56,53,92,74,48,30.18,30.07,5,1,7,0.00
2013-8-5,73,65,57,65,60,55,94,85,70,30.08,29.82,3,0,10,0.01
2013-8-6,84,74,65,72,68,64,95,82,63,29.83,29.73,5,1,11,0.00
2013-8-7,82,75,66,72,68,63,95,80,56,29.91,29.69,6,2,13,0.00
2013-8-8,80,70,62,66,60,54,96,75,51,30.00,29.90,4,1,8,0.00
2013-8-9,80,70,58,66,60,53,83,71,60,30.01,29.93,6,1,13,0.00
2013-8-10,77,68,56,61,57,54,93,72,50,30.10,30.02,7,1,10,0.00
2013-8-11,76,66,56,67,62,55,95,86,71,30.10,29.98,4,0,6,0.18
2013-8-12,80,71,65,69,65,60,97,83,58,29.99,29.84,9,1,11,0.15
2013-8-13,72,63,54,59,52,48,86,69,49,30.13,29.93,10,2,15,0.00
2013-8-14,75,62,51,55,53,50,96,74,48,30.20,30.09,6,1,10,0.00
2013-8-15,77,66,58,60,56,53,90,71,47,30.12,30.05,4,1,7,0.00
2013-8-16,82,69,56,60,57,54,96,70,41,30.15,30.08,5,1,9,0.00
2013-8-17,82,69,56,64,58,54,96,72,43,30.21,30.12,5,0,6,0.00
2013-8-18,83,69,54,64,58,53,97,72,43,30.19,30.04,5,1,8,0.00
2013-8-19,84,71,58,67,62,56,93,76,50,30.07,29.96,5,1,10,0.00
2013-8-20,87,76,64,69,66,62,95,73,50,30.03,29.95,7,1,13,0.00
2013-8-21,89,80,70,73,69,65,86,71,55,29.98,29.85,10,2,15,0.00
2013-8-22,79,72,67,71,69,64,97,89,77,30.08,29.92,14,1,25,0.76
2013-8-23,83,70,58,65,60,57,96,74,47,30.14,30.06,4,0,10,0.00
2013-8-24,85,72,57,69,63,56,97,77,56,30.21,30.11,5,1,8,0.00
2013-8-25,90,79,69,71,66,60,79,66,47,30.15,30.04,9,2,15,0.00
2013-8-26,91,81,73,78,71,66,81,73,64,30.07,29.89,7,2,11,0.00
2013-8-27,94,84,76,77,74,71,85,73,56,29.90,29.73,9,2,15,0.00
2013-8-28,87,78,69,76,72,67,92,81,63,29.99,29.76,9,1,10,0.00
2013-8-29,89,77,65,72,69,64,97,79,54,30.03,29.91,4,0,8,0.00
2013-8-30,94,78,69,79,72,66,93,83,58,29.92,29.69,9,2,12,0.13
2013-8-31,80,71,65,70,67,63,95,86,71,29.82,29.74,3,0,5,0.01
2013-9-1,85,72,62,74,66,60,97,82,61,29.78,29.65,8,1,12,0.01
2013-9-2,72,66,58,61,58,53,91,78,59,29.96,29.77,5,2,12,0.00
2013-9-3,75,63,52,59,54,50,93,76,49,30.07,29.97,6,0,7,0.00
2013-9-4,83,69,56,67,61,55,95,78,54,30.08,30.00,4,1,8,0.00
2013-9-5,76,67,56,64,58,51,94,75,52,30.22,30.08,4,1,10,0.00
2013-9-6,86,70,51,68,60,49,94,74,54,30.19,29.93,8,1,11,0.00
2013-9-7,90,77,70,74,68,64,91,74,53,29.93,29.80,6,1,13,0.00
2013-9-8,72,69,65,69,65,61,90,87,82,30.00,29.90,8,2,14,0.00
2013-9-9,94,80,66,78,72,64,95,78,59,29.92,29.72,6,1,11,0.00
2013-9-10,95,85,75,73,67,64,71,56,38,29.87,29.75,9,2,15,0.00
2013-9-11,84,76,69,70,67,65,90,75,60,30.01,29.87,6,1,10,0.01
2013-9-12,75,68,60,66,57,50,96,71,47,30.09,29.92,12,3,19,0.00
2013-9-13,66,56,47,50,44,40,88,66,42,30.20,30.09,11,2,14,0.00
2013-9-14,73,59,43,52,46,41,96,68,41,30.16,29.97,6,1,10,0.00
2013-9-15,61,57,54,57,53,46,96,88,58,30.19,29.95,10,1,12,0.59
2013-9-16,66,55,44,53,47,42,92,76,52,30.37,30.20,11,2,12,0.00
2013-9-17,71,57,43,57,51,42,96,80,57,30.32,30.07,4,1,9,0.03
2013-9-18,78,68,58,69,62,55,95,83,70,30.06,29.84,6,1,11,0.10
2013-9-19,88,74,67,77,70,65,97,87,59,29.86,29.65,15,1,24,1.07
2013-9-20,73,67,58,67,62,54,98,84,63,29.79,29.67,14,3,17,0.01
2013-9-21,59,55,49,55,49,45,95,80,63,29.93,29.78,8,2,20,0.00
2013-9-22,66,54,44,49,46,43,95,78,50,30.06,29.93,4,1,7,0.00
2013-9-23,69,55,43,54,48,42,97,81,56,30.10,30.00,6,1,8,0.00
2013-9-24,72,58,47,55,51,46,97,79,53,30.03,29.92,7,1,8,0.01
2013-9-25,73,58,47,58,51,46,96,80,52,29.97,29.91,6,1,7,0.00
2013-9-26,78,60,46,62,51,46,98,76,44,30.05,29.95,7,0,7,0.01
2013-9-27,82,65,51,60,54,50,97,72,40,30.12,30.00,5,1,10,0.00
2013-9-28,81,66,54,67,58,50,95,76,51,30.01,29.78,13,2,18,0.23
2013-9-29,72,58,49,56,49,43,97,75,37,30.03,29.92,4,1,6,0.01
2013-9-30,75,60,44,54,47,42,96,68,37,29.97,29.80,6,0,10,0.00
2013-10-1,82,68,56,65,60,50,93,76,55,29.91,29.79,12,1,13,0.00
2013-10-2,79,64,49,58,49,39,97,65,28,30.07,29.92,4,0,6,0.00
2013-10-3,75,66,59,70,63,50,96,89,70,29.94,29.78,4,0,14,0.20
2013-10-4,69,66,62,67,64,61,97,96,92,29.96,29.82,5,1,10,0.46
2013-10-5,73,67,62,71,66,58,98,96,86,29.89,29.69,4,0,10,0.24
2013-10-6,62,53,46,57,45,42,93,75,55,29.72,29.63,9,2,11,0.01
2013-10-7,68,54,46,49,46,44,96,77,43,30.06,29.69,10,3,17,0.03
2013-10-8,77,58,42,55,47,41,98,72,38,30.14,30.05,7,1,12,0.00
2013-10-9,75,60,48,53,48,43,94,67,33,30.19,30.08,3,0,8,0.00
2013-10-10,77,59,44,57,50,43,97,76,42,30.14,30.01,3,0,7,0.00
2013-10-11,76,63,52,61,54,50,97,77,54,30.02,29.88,4,1,13,0.00
2013-10-12,70,62,47,62,53,41,90,73,44,30.12,29.86,7,2,12,0.04
2013-10-13,62,50,40,45,40,37,94,73,41,30.39,30.12,9,1,14,0.00
2013-10-14,62,48,35,48,42,34,97,81,54,30.41,30.11,5,1,10,0.00
2013-10-15,62,54,47,61,50,44,96,87,75,30.10,29.70,6,1,14,0.30
2013-10-16,54,51,49,51,48,45,94,89,81,29.91,29.75,7,2,15,0.02
2013-10-17,53,47,39,47,44,38,96,91,75,29.89,29.79,6,1,8,0.11
2013-10-18,49,44,38,44,40,37,96,86,73,29.93,29.78,9,2,16,0.01
2013-10-19,52,44,36,41,38,34,93,81,54,29.89,29.71,7,1,11,0.01
2013-10-20,52,45,34,48,41,33,96,87,64,29.84,29.69,2,0,8,0.05
2013-10-21,48,41,33,45,32,25,90,72,55,29.93,29.73,9,4,18,0.00
2013-10-22,46,37,29,32,29,25,85,73,56,29.96,29.89,6,1,8,0.00
2013-10-23,44,37,30,32,28,24,86,71,45,30.00,29.92,9,3,18,0.00
2013-10-24,43,37,31,30,27,24,81,69,53,30.28,30.00,13,3,17,0.00
2013-10-25,52,41,30,32,29,26,87,63,44,30.36,29.92,9,2,17,0.00
2013-10-26,51,46,39,38,31,28,71,57,45,30.05,29.77,17,5,24,0.00
2013-10-27,55,42,31,34,31,28,89,68,41,30.04,29.89,9,1,15,0.00
2013-10-28,45,41,34,37,34,30,88,76,67,30.39,30.02,9,3,15,0.00
2013-10-29,54,45,38,43,39,31,93,79,66,30.38,30.12,5,1,7,0.00
2013-10-30,60,52,45,56,50,43,96,92,84,30.11,29.71,4,0,16,0.00
2013-10-31,62,57,45,61,55,41,97,95,88,29.71,29.20,10,2,23,0.84
2013-11-1,47,45,43,45,42,39,94,89,85,29.72,29.30,10,3,20,0.02
2013-11-2,46,41,36,41,38,34,94,89,75,30.14,29.72,9,2,12,0.00
2013-11-3,52,40,29,44,35,28,97,83,53,30.29,30.13,8,1,10,0.01
2013-11-4,56,50,42,46,41,37,84,73,61,30.21,30.02,9,2,14,0.00
2013-11-5,55,52,48,51,48,45,95,88,78,30.22,29.84,8,1,17,0.12
2013-11-6,56,45,33,55,41,26,96,85,61,30.14,29.67,10,4,21,0.42
2013-11-7,38,17,30,32,-34,-100,85,42,78,30.23,30.14,6,-483,11,0.00
2013-11-8,-200,0,200,-100,-100,-100,0,0,100,30.29,29.78,0,-999,0,0.00
2013-11-9,54,39,41,42,12,-100,80,54,54,30.05,29.72,23,-181,31,0.00
2013-11-10,48,43,37,34,31,29,72,64,51,30.31,30.06,10,4,16,0.00
2013-11-11,45,35,25,36,27,16,94,75,67,30.54,30.04,10,3,15,0.08
2013-11-12,31,25,20,18,16,13,80,69,49,30.72,30.55,10,4,15,0.00
2013-11-13,41,31,20,22,18,15,80,60,42,30.57,30.09,13,4,17,0.00
2013-11-14,47,40,32,31,27,20,67,60,52,30.08,29.88,8,2,14,0.00
2013-11-15,54,44,36,36,33,28,86,65,49,29.93,29.86,5,2,9,0.00
2013-11-16,60,50,39,56,48,36,96,91,84,29.87,29.47,9,3,20,0.04
2013-11-17,64,52,41,62,49,36,98,90,78,29.64,29.05,18,5,26,0.59
2013-11-18,41,35,28,36,28,23,85,74,62,30.25,29.65,17,7,25,0.00
2013-11-19,42,31,22,29,25,19,93,79,57,30.37,30.25,4,1,8,0.00
2013-11-20,42,34,30,35,20,-100,94,71,62,30.26,30.08,8,-82,19,0.07
2013-11-21,45,35,37,41,18,-100,96,77,85,30.22,30.09,4,-145,9,0.00
2013-11-22,39,27,25,37,2,-100,93,63,63,30.46,30.22,13,-176,16,0.04
2013-11-23,25,16,14,19,-10,-100,78,53,52,30.74,30.41,16,-162,21,0.00
2013-11-24,27,17,10,10,-10,-100,82,49,40,30.71,30.30,9,-164,15,0.00
2013-11-25,39,22,22,27,-2,-100,92,65,57,30.29,30.04,9,-197,16,0.00
2013-11-26,32,20,14,28,-7,-100,90,57,60,30.22,30.02,10,-207,20,0.00
2013-11-27,26,17,12,15,-9,-100,82,56,59,30.27,30.21,9,-176,14,0.00
2013-11-28,29,20,18,19,-5,-100,82,57,65,30.51,30.17,8,-186,12,0.00
2013-11-29,33,21,12,24,-1,-100,92,63,59,30.64,30.36,3,-166,8,0.00
2013-11-30,47,34,27,34,28,23,92,79,61,30.35,30.02,5,1,12,0.00
2013-12-1,40,33,28,31,28,25,93,82,66,30.13,29.98,7,1,7,0.00
2013-12-2,42,32,22,36,29,21,95,87,69,29.97,29.74,5,1,9,0.01
2013-12-3,41,38,35,40,37,33,97,96,94,29.73,29.66,7,1,8,0.15
2013-12-4,51,44,36,50,43,33,99,97,88,29.73,29.44,14,2,22,0.07
2013-12-5,36,24,17,33,17,10,91,75,65,30.28,29.61,16,7,23,0.00
2013-12-6,18,13,10,10,6,3,81,72,62,30.58,30.26,8,4,15,0.00
2013-12-7,15,6,3,5,-25,-100,83,56,63,30.73,30.58,9,-261,10,0.00
2013-12-8,24,18,10,22,13,2,94,82,66,30.64,29.96,6,1,10,0.00
2013-12-9,22,11,-1,20,7,-6,93,83,72,30.21,29.94,13,4,23,0.00
2013-12-10,20,10,-4,13,4,-8,86,77,68,30.30,29.96,14,4,22,0.00
2013-12-11,15,9,-1,12,2,-8,89,75,61,30.56,30.28,13,4,16,0.00
2013-12-12,17,9,-3,12,3,-8,82,76,69,30.54,30.21,9,2,16,0.00
2013-12-13,27,21,14,21,16,10,86,83,75,30.23,30.16,8,2,14,0.00
2013-12-14,27,24,20,24,21,18,93,90,85,30.17,29.93,12,3,13,0.00
2013-12-15,22,13,6,19,5,-4,89,72,61,30.16,29.92,15,6,19,0.00
2013-12-16,17,9,-2,13,3,-7,90,76,57,30.19,30.05,6,1,6,0.00
2013-12-17,34,26,15,27,20,13,93,80,63,30.07,29.92,14,4,20,0.00
2013-12-18,35,25,12,27,17,8,85,73,54,30.12,29.77,9,2,15,0.00
2013-12-19,32,29,23,31,26,21,94,88,78,29.96,29.79,11,2,13,0.00
2013-12-20,28,25,24,26,23,22,95,93,92,29.88,29.79,8,3,12,0.00
2013-12-21,31,26,24,30,26,23,96,95,95,29.89,29.68,8,2,12,0.00
2013-12-22,31,25,21,29,24,20,96,94,93,30.12,29.67,7,2,13,0.00
2013-12-23,22,10,-2,20,7,-6,94,86,80,30.45,30.12,6,2,10,0.00
2013-12-24,14,2,-7,11,-2,-11,89,83,75,30.59,30.36,3,1,7,0.00
2013-12-25,24,21,14,22,18,12,92,89,86,30.34,30.08,6,2,10,0.00
2013-12-26,27,22,12,24,18,9,92,86,79,30.26,30.09,7,1,11,0.00
2013-12-27,37,27,13,31,24,11,95,87,78,30.27,30.02,10,2,14,0.01
2013-12-28,44,37,25,35,31,23,94,81,70,30.05,29.74,6,1,13,0.32
2013-12-29,40,22,0,32,17,-6,92,79,70,30.24,29.71,12,5,21,0.00
2013-12-30,4,-1,-8,-1,-8,-14,84,72,56,30.37,30.24,9,2,12,0.00
2013-12-31,8,4,-4,5,0,-7,87,83,74,30.40,30.24,6,1,10,0.00
2014-1-1,11,7,3,6,1,-5,86,78,69,30.40,30.31,11,4,15,0.00
2014-1-2,11,7,-4,5,2,-8,86,80,71,30.46,30.27,9,3,16,0.00